Regional Weather Roundup
Issued by NWS Goodland, KS

Home | Current Version | Previous Version | Graphics & Text | Print | Product List | Glossary On
Versions: 1 2 3 4 5 6 7 8 9 10 11 12 13 14 15 16 17 18 19 20 21 22 23 24 25 26 27 28 29 30 31 32 33 34 35 36 37 38 39 40 41 42 43 44 45 46 47 48 49 50
000
ASUS43 KGLD 272308
RWRGLD

GOODLAND FORECAST AREA HOURLY WEATHER ROUNDUP
NATIONAL WEATHER SERVICE GOODLAND KS
500 PM MDT WED JUL 27 2016

...OFFICIAL OBSERVATIONS...

CITY           SKY/WX    TMP DP  RH WIND       PRES   REMARKS
GOODLAND KS    SUNNY     91  59  33 SE10      30.05S
HILL CITY KS   SUNNY     88  67  49 SE7       29.99F
IMPERIAL NEB   SUNNY     88  57  34 SE3       30.05F
MCCOOK NEB     SUNNY     88  61  40 SE9       30.02S
AKRON CO       SUNNY     85  62  46 SE9G20    30.11S
BURLINGTON CO  SUNNY     88  55  32 SE10      30.10S
LIMON CO       LGT RAIN  88  51  28 E29G37    30.13F
$$

...UNOFFICIAL OBSERVATIONS...

CITY           SKY/WX    TMP DP  RH WIND       PRES   REMARKS
COLBY KS       MOSUNNY   91  63  38 E8        30.04F
LENORA KS        N/A     89  32  13 MISG        N/A
NORTON KS      SUNNY     90  55  31 E6        30.00S
SHARON SPRINGS   N/A     89  59  36 SE12G20     N/A
KIT CARSON CO    N/A     87  56  34 CALM        N/A
YUMA CO          N/A     85  63  47 SE8         N/A
$$



USA.gov is the U.S. government's official web portal to all federal, state and local government web resources and services.